Vorticity
14 12 10 11 13 12 9 7 6 7 7 10 10 8 9 8 8 9 9 11 12 11 11 9 8 11 10 9 9 8 9 8 7 6 5 4 5 5 5 4 4 5 6 6 6 6 6 6 6 6 6 7 6 6 7 6 7 8 6 7 8 9 7 5 6 8 9 7 5 6 7 6 6 7 6 7 7 4 4 5 5 6 6 6 6
14 13 10 10 10 10 11 9 8 9 8 8 8 8 9 8 7 9 9 8 10 12 12 10 9 11 10 9 10 8 7 7 7 7 6 5 5 5 5 5 5 5 6 6 6 6 6 7 7 6 6 7 7 7 7 6 7 7 5 7 8 8 9 9 9 9 8 6 6 7 6 4 6 7 7 10 8 4 7 7 5 5 6 5 5
11 10 9 10 8 9 13 10 7 10 10 10 10 7 8 9 9 10 9 9 9 10 12 11 10 10 10 10 9 8 7 6 6 7 7 7 6 6 6 6 6 6 5 6 6 5 6 6 7 6 6 6 6 7 7 7 7 6 5 7 7 7 8 9 9 8 7 6 5 7 6 5 7 8 9 9 6 5 8 7 4 5 7 7 6
12 11 8 8 5 4 5 3 1 4 6 8 10 9 9 12 12 9 8 9 8 8 10 11 10 10 10 9 8 8 8 6 7 8 7 7 6 6 7 7 7 6 5 6 5 5 6 6 6 6 6 6 6 6 6 6 6 6 6 7 6 8 7 5 5 7 8 7 6 6 6 5 7 8 8 6 4 6 8 6 6 6 6 6 6
13 14 12 10 7 5 4 5 5 6 5 4 4 4 3 6 10 11 10 10 8 8 9 10 11 10 10 10 8 7 6 6 8 9 8 8 7 7 7 7 7 6 6 5 5 5 5 6 7 7 6 6 6 6 6 6 6 5 6 6 5 6 7 5 5 6 6 6 6 6 5 4 5 5 6 5 5 7 8 6 7 8 8 7 7
14 15 15 14 12 11 9 8 9 9 9 9 8 5 2 1 3 5 8 10 10 10 9 8 10 10 9 10 9 8 7 6 6 7 7 8 7 8 8 7 7 7 6 6 5 5 6 6 7 6 6 6 6 6 6 6 6 5 6 6 4 6 7 6 7 8 7 6 6 7 7 6 5 4 5 6 5 4 4 4 5 5 5 6 6
12 14 16 16 16 16 14 10 10 9 10 12 14 13 11 10 8 5 5 6 8 10 10 9 9 9 9 8 8 9 9 7 6 6 6 6 6 7 8 8 8 7 7 7 6 5 6 6 7 7 7 7 6 6 6 6 7 7 6 6 6 7 7 5 6 7 7 7 7 8 8 6 5 5 6 5 4 3 3 4 5 5 6 6 6
9 11 13 14 15 17 17 15 14 12 12 13 14 15 15 15 15 12 10 8 7 7 7 7 8 10 11 9 9 10 10 9 10 8 7 7 7 7 7 8 8 8 7 7 6 6 6 6 7 7 6 7 7 7 7 7 8 8 8 7 7 7 7 7 7 6 6 6 6 8 11 8 7 9 8 4 3 4 4 5 5 5 5 5 5
9 10 10 11 13 13 15 16 15 15 15 14 15 16 16 16 15 14 13 13 12 10 8 7 8 9 9 10 9 8 9 12 12 11 10 8 7 8 8 8 8 8 8 7 7 7 7 7 7 6 6 6 6 7 7 7 8 8 8 8 8 8 8 8 9 8 7 6 4 5 8 8 9 10 9 9 10 7 4 3 2 1 2 4 4
6 5 5 7 7 7 9 11 12 13 14 14 14 15 15 16 16 16 16 14 14 15 13 12 11 9 7 8 8 7 9 11 10 9 10 8 8 10 9 8 8 8 8 8 8 7 7 7 7 6 6 5 5 6 7 7 8 8 8 9 9 9 8 8 10 10 8 8 8 4 2 4 5 2 3 11 17 14 8 5 4 4 5 5 6
3 1 1 1 2 3 3 4 5 7 8 9 11 11 12 13 14 16 17 16 15 15 14 13 13 12 9 8 8 8 9 10 9 10 9 8 9 10 10 8 8 9 9 8 8 7 6 6 6 7 7 7 7 7 7 7 8 7 8 8 8 9 8 8 9 9 9 10 10 7 5 6 5 2 4 6 8 10 11 10 9 8 7 7 7
3 2 1 0 1 2 2 3 3 3 3 4 4 6 7 7 9 11 13 16 16 16 16 14 13 14 13 12 12 12 9 8 8 8 7 8 8 9 11 10 8 7 8 9 10 9 7 6 6 7 7 7 7 7 6 7 7 7 8 7 6 7 6 6 6 8 9 9 9 10 10 8 6 7 7 4 -1 -2 1 5 6 6 7 8 7
4 3 2 1 1 2 2 3 3 3 4 4 3 3 4 3 4 5 6 9 11 13 16 16 15 15 15 14 14 13 11 11 10 7 6 7 6 6 10 10 7 6 7 7 6 5 5 7 7 7 6 5 6 6 5 5 5 5 6 6 7 7 6 7 7 8 9 8 8 8 8 8 10 8 6 8 8 1 -2 3 5 3 5 6 4
6 5 4 4 3 2 2 2 2 3 3 3 4 3 3 3 2 2 2 3 5 7 10 12 14 15 15 16 16 14 12 13 12 10 8 6 5 6 7 8 7 7 7 6 4 3 5 7 6 5 4 5 6 4 4 6 5 3 2 4 8 8 6 7 6 7 9 9 8 8 7 8 9 6 7 12 10 2 1 5 4 3 4 4 3
10 9 7 8 6 5 5 4 3 4 3 4 4 3 3 3 2 2 2 2 3 4 5 6 9 11 13 15 16 15 15 14 13 14 12 9 7 7 7 7 8 7 5 5 5 6 6 6 5 6 5 5 5 5 6 8 8 7 6 7 8 6 7 9 8 6 4 3 6 10 7 6 7 6 9 12 6 3 6 8 7 5 5 5 6
8 8 7 8 7 7 8 7 6 6 5 5 5 5 5 4 3 4 3 3 3 3 4 5 5 6 9 11 13 15 17 16 13 13 14 13 11 9 8 9 10 9 7 6 7 7 5 5 5 5 5 6 6 6 6 6 7 6 4 4 5 5 5 8 9 7 4 4 12 14 6 6 10 7 5 6 4 6 9 8 6 6 6 7 6
6 7 6 6 6 6 6 6 6 7 6 6 6 5 6 5 5 5 5 5 5 4 4 5 4 5 6 8 10 11 14 14 13 12 11 10 10 11 10 11 11 9 8 7 7 7 7 7 7 7 8 9 8 7 6 6 8 8 4 3 6 7 5 3 3 4 4 4 11 14 7 7 11 10 9 9 5 5 7 5 4 6 6 6 5
9 9 9 9 8 8 8 7 7 6 6 6 6 5 6 6 6 6 6 6 6 5 6 5 4 5 5 6 7 7 9 11 12 13 12 9 8 10 10 11 12 11 11 10 9 9 9 6 6 8 9 7 7 8 8 8 10 10 7 5 7 8 8 5 3 5 5 3 8 12 9 6 7 8 12 15 12 8 5 4 6 7 6 8 10
12 12 12 13 13 13 13 12 12 11 10 9 8 7 7 7 7 7 7 7 7 6 7 6 5 6 5 5 6 6 8 9 10 13 15 13 11 9 8 10 11 12 13 14 14 14 12 9 10 11 9 7 7 9 8 8 10 8 5 4 4 4 4 4 4 6 6 5 6 5 2 3 4 3 4 8 11 9 7 8 10 8 8 11 9
12 11 12 13 12 13 14 14 14 15 15 15 13 12 11 10 10 10 9 9 9 8 8 8 7 7 6 6 5 5 7 8 7 9 12 14 14 11 8 9 9 8 9 10 10 11 11 12 15 16 13 12 13 14 13 13 13 11 11 12 11 8 7 8 9 9 7 7 6 4 6 10 10 8 8 10 9 8 7 9 8 6 7 9 7
11 11 11 11 11 12 12 11 12 13 13 15 15 15 14 13 12 12 11 11 11 10 10 9 9 10 9 8 6 5 6 7 7 7 8 10 13 13 11 9 7 6 7 7 7 8 9 10 12 13 13 13 14 16 17 17 16 16 16 15 13 14 15 14 15 16 14 13 11 11 14 15 12 12 15 15 12 9 10 12 11 9 10 11 10
12 11 12 12 12 12 12 12 12 12 12 13 14 14 15 14 13 13 13 12 11 11 11 11 10 11 11 11 10 8 7 7 7 7 7 7 10 12 13 12 10 8 8 7 7 7 8 9 8 8 8 9 10 12 12 12 12 12 12 10 10 13 13 12 12 15 15 13 12 12 11 10 10 12 13 13 11 12 14 15 13 11 15 16 11
11 11 11 12 12 12 13 13 13 13 13 13 13 14 15 14 14 14 13 13 13 12 12 11 11 11 12 12 12 12 11 10 8 8 7 7 7 9 11 13 13 11 10 8 8 7 7 7 7 7 7 6 7 7 6 6 6 6 6 6 6 7 8 8 9 10 10 10 11 10 6 4 7 10 10 10 10 10 11 10 9 12 12 10 10
10 9 10 11 11 11 12 12 13 14 14 13 12 12 12 13 13 13 13 13 13 13 13 12 11 11 12 12 13 13 14 14 13 11 10 8 7 8 9 11 12 12 11 10 9 9 9 9 8 8 8 8 8 8 7 8 8 8 8 8 8 8 8 8 9 8 8 9 9 8 5 5 8 10 8 7 8 9 9 9 13 17 13 9 15
9 9 9 8 8 10 10 10 12 12 13 13 12 11 11 11 11 12 13 14 14 14 14 14 13 12 13 13 13 13 14 15 14 12 10 9 8 8 9 10 12 13 12 11 10 9 9 9 10 10 10 11 11 10 11 11 10 10 10 9 9 9 8 8 7 6 6 6 6 7 7 7 9 8 8 9 10 9 9 9 10 13 12 11 9
8 8 7 6 7 8 8 9 10 9 9 10 10 10 10 10 10 11 11 13 14 13 14 15 14 14 13 14 14 14 15 16 16 15 13 10 9 9 10 11 12 12 13 13 12 12 12 12 13 13 12 12 12 11 11 10 9 9 8 7 7 7 6 7 7 7 7 7 8 9 9 9 9 9 10 12 11 11 13 12 10 9 7 5 6
8 7 7 7 7 7 7 8 8 8 9 8 8 9 10 9 10 11 11 13 14 13 13 14 14 14 14 14 15 15 15 16 17 17 15 12 11 11 12 13 13 12 13 13 13 13 13 13 12 11 11 10 10 9 9 9 9 10 10 10 11 11 11 11 10 10 11 11 11 12 13 14 15 15 15 15 14 15 14 11 10 11 8 11 22
7 7 7 7 7 8 8 8 8 8 8 8 8 8 8 8 9 10 12 15 15 15 15 13 13 14 15 15 16 15 16 16 16 16 15 13 12 12 13 14 14 13 13 13 12 12 11 10 10 9 9 9 10 11 13 14 15 16 16 16 17 18 19 19 19 19 18 17 16 16 16 17 18 18 19 18 16 16 16 15 20 25 22 21 23
6 5 5 7 9 10 11 11 10 9 9 9 10 8 6 6 7 8 12 15 17 17 16 14 14 14 15 16 17 17 16 16 16 15 13 12 12 13 14 14 14 13 12 12 11 11 10 9 9 10 12 14 16 17 18 17 17 17 18 18 19 20 21 21 22 22 22 21 21 20 19 18 18 17 19 19 20 23 24 22 24 24 19 13 10
5 4 4 6 9 12 14 14 13 11 10 10 11 11 9 7 6 8 12 16 19 19 17 15 14 15 16 17 17 17 17 16 15 14 13 13 13 14 14 14 13 12 12 12 11 12 12 13 15 17 18 18 17 15 15 14 15 16 17 18 19 20 21 22 22 22 22 22 22 21 20 20 20 21 21 19 20 23 21 14 10 11 11 10 11
5 4 4 6 9 11 14 15 14 13 12 12 12 13 12 10 8 9 12 18 20 19 17 16 17 17 17 17 16 16 16 15 15 14 14 14 15 15 14 15 15 13 13 13 13 14 16 17 18 16 13 12 10 11 12 13 14 15 17 18 20 20 20 21 21 20 21 21 21 20 21 20 19 18 16 14 14 16 16 13 13 16 18 19 20
7 6 7 8 10 12 13 14 14 13 13 14 14 14 13 12 10 10 13 20 22 20 17 16 16 16 16 16 16 17 18 18 19 20 19 19 18 17 16 16 15 15 14 15 15 16 16 14 11 9 8 9 10 11 12 12 13 15 16 17 18 19 18 18 18 18 18 18 18 17 16 16 15 15 16 17 18 20 20 20 20 20 21 22 22
9 10 10 9 11 14 14 14 13 12 13 15 16 15 14 12 11 12 15 20 21 18 16 15 15 15 15 16 17 18 19 20 21 21 21 21 19 17 17 16 15 16 16 16 16 14 11 9 9 9 10 11 12 13 14 15 16 17 16 16 16 17 17 17 17 17 17 16 16 16 15 15 16 16 17 17 18 18 18 18 17 16 16 14 12
10 10 11 12 14 16 16 14 10 9 9 11 13 14 13 11 12 14 16 18 18 17 17 18 19 20 20 21 21 21 20 20 19 19 19 19 18 17 17 16 16 16 15 14 13 11 10 11 12 12 13 13 15 16 17 16 16 15 15 15 15 15 15 15 14 14 13 12 12 11 11 11 12 12 13 13 13 14 14 12 11 10 9 9 9
9 8 9 11 12 14 14 12 8 6 7 8 10 12 11 11 13 15 16 17 18 17 17 18 19 21 21 20 20 21 20 20 20 20 19 19 19 18 17 16 16 15 14 14 13 12 13 14 14 14 16 16 16 15 14 13 14 13 11 11 11 10 9 8 8 8 7 7 8 8 9 10 11 12 13 13 12 12 10 9 8 8 8 8 8
7 8 7 6 7 9 9 10 9 9 10 9 9 12 12 11 13 16 16 17 17 16 14 14 13 14 14 13 13 14 15 15 16 16 16 16 16 16 16 15 15 14 13 13 14 14 15 15 15 15 15 14 12 12 11 10 10 8 7 7 6 6 6 6 6 7 8 8 10 10 10 11 11 11 11 9 8 7 7 6 6 6 6 7 7
8 8 6 5 7 7 6 9 12 12 12 11 11 13 13 10 12 16 16 16 15 13 11 11 9 8 10 10 10 11 12 12 13 12 12 13 13 13 14 14 13 13 12 12 13 14 13 12 12 11 10 9 8 8 7 7 6 5 6 6 6 6 7 7 8 9 10 11 12 11 11 11 10 8 8 7 6 7 6 7 7 7 7 8 8
10 10 7 6 8 6 3 7 12 13 14 14 13 14 13 11 12 16 16 15 15 12 9 8 7 8 9 9 9 10 11 11 12 11 11 11 11 10 10 10 10 10 10 10 10 9 9 8 8 7 7 7 7 6 6 7 7 6 7 7 7 7 8 8 9 10 10 11 11 10 9 9 8 8 8 7 7 8 8 8 8 8 7 7 7
11 10 7 6 8 7 3 5 10 13 15 15 13 13 13 11 12 15 16 15 15 12 9 7 7 7 8 8 8 8 8 8 9 9 9 9 9 8 8 8 8 8 8 8 8 8 8 8 7 7 7 7 7 7 8 8 8 8 8 7 7 8 8 9 9 10 9 9 9 9 9 8 8 8 8 8 7 8 7 7 7 7 7 7 7
11 8 6 6 8 8 5 4 7 11 14 14 14 14 13 11 11 14 16 15 15 12 10 8 7 7 7 7 7 7 7 7 7 8 7 8 8 9 9 8 8 7 7 7 7 7 7 7 6 7 7 7 6 6 6 6 6 6 6 6 6 7 8 8 9 9 9 9 8 8 8 8 7 7 6 7 7 7 7 8 8 8 8 8 8
11 8 5 4 6 8 8 5 5 7 10 13 15 17 16 13 12 13 14 15 14 12 10 8 8 7 6 6 6 7 7 7 6 6 6 6 6 7 8 8 7 7 7 6 6 6 6 6 6 6 6 5 5 6 6 6 6 6 7 8 9 10 10 10 10 10 9 9 8 8 8 7 7 7 6 7 8 7 8 8 7 7 8 8 7
10 9 6 2 2 7 10 6 4 7 9 12 16 19 17 14 13 13 14 14 13 13 11 8 7 6 6 5 6 6 6 7 7 6 6 6 5 5 5 5 5 6 6 6 6 6 6 6 6 6 5 6 6 7 7 7 7 8 9 11 12 12 12 12 11 10 10 9 8 8 7 7 7 7 7 8 8 8 8 8 8 8 8 8 7
6 7 8 5 3 8 11 7 5 8 10 12 16 18 16 13 13 14 15 14 12 12 12 9 7 6 6 5 6 6 7 7 7 6 6 7 6 6 6 6 6 7 7 6 6 6 6 6 6 6 6 6 5 6 6 7 8 9 11 11 12 12 12 11 10 10 9 9 8 7 7 7 8 8 9 9 9 9 9 9 9 9 8 8 8
5 6 9 8 6 9 12 8 5 8 11 13 14 16 16 14 12 12 14 14 13 12 12 10 8 7 5 6 7 7 6 5 3 3 5 6 6 7 7 7 7 7 7 7 7 6 5 6 6 6 6 6 6 7 9 10 11 13 13 12 12 12 11 10 10 9 8 8 7 8 8 9 9 9 9 9 9 9 10 10 9 9 9 9 8
8 7 8 9 8 10 11 9 7 11 15 14 13 15 17 14 9 8 9 11 12 12 12 11 9 8 7 7 6 4 2 0 2 7 11 12 11 11 11 11 10 9 7 6 6 5 5 5 6 6 6 7 8 10 11 13 13 14 13 12 11 11 11 10 9 9 9 9 9 9 9 9 9 8 9 9 9 9 9 9 10 10 10 10 10
18 11 8 9 9 8 8 8 9 13 16 15 13 15 16 13 9 8 7 8 11 14 13 10 9 8 8 7 4 3 1 1 4 10 13 11 9 11 13 13 13 12 9 7 6 7 7 7 7 7 7 8 9 11 12 13 13 12 12 12 12 11 10 10 9 9 9 9 9 9 8 8 7 7 7 7 8 8 9 10 11 11 11 12 12
28 20 11 9 9 7 6 6 9 13 16 16 15 15 15 14 12 10 9 8 11 14 16 14 11 9 8 6 4 4 4 2 3 7 9 7 7 11 14 15 14 13 11 10 9 9 9 9 9 8 8 9 10 11 12 12 12 12 12 11 11 10 10 9 9 9 9 9 8 8 7 6 6 6 6 7 8 9 10 10 11 12 12 13 13
28 23 11 6 6 5 3 5 8 12 14 15 15 15 14 13 11 10 9 9 9 12 16 17 14 13 12 10 8 7 6 3 3 6 8 8 9 13 16 16 16 14 13 12 11 10 10 9 9 8 8 9 10 11 11 11 12 12 11 11 10 9 9 9 9 9 9 8 7 7 6 6 5 6 7 8 9 10 11 11 12 12 13 13 13
21 21 15 10 8 6 5 7 10 12 13 15 16 15 14 12 11 10 9 9 9 10 12 13 13 13 14 13 11 11 9 7 8 9 9 9 11 13 13 13 13 13 13 13 11 10 10 10 9 10 10 10 10 10 10 10 11 11 11 10 9 8 9 9 9 8 8 8 7 7 6 6 6 6 8 9 9 10 10 11 10 11 11 11 11
14 14 11 8 7 8 9 10 10 11 12 14 15 15 13 12 12 11 10 9 9 9 10 11 11 11 11 11 12 13 12 11 12 11 11 11 11 11 12 12 12 11 12 12 12 12 12 12 12 12 12 11 11 10 9 9 9 9 9 9 9 9 9 9 8 8 8 7 7 6 6 6 7 8 9 9 9 10 11 11 11 11 11 10 9
12 9 6 6 8 11 11 10 9 12 13 12 13 14 13 12 12 12 11 9 9 9 9 10 11 11 11 12 12 13 13 13 13 12 12 12 11 9 10 12 12 11 11 11 11 11 12 12 12 13 13 12 11 10 9 8 7 8 9 10 10 10 10 9 9 9 8 7 7 7 7 8 9 10 10 10 9 9 10 11 11 11 12 11 10
Height
5880 5878 5879 5881 5882 5883 5884 5885 5886 5887 5887 5889 5890 5891 5891 5891 5892 5893 5893 5893 5893 5894 5894 5895 5895 5896 5897 5898 5898 5899 5900 5902 5903 5904 5904 5905 5906 5907 5908 5908 5909 5910 5911 5911 5912 5912 5913 5913 5913 5913 5913 5913 5913 5914 5914 5913 5914 5914 5913 5913 5914 5913 5913 5913 5913 5913 5913 5913 5913 5913 5913 5913 5912 5912 5912 5912 5911 5910 5910 5911 5911 5912 5912 5911 5911
5878 5878 5880 5881 5882 5882 5884 5884 5885 5885 5886 5887 5889 5889 5889 5890 5890 5891 5891 5891 5892 5892 5893 5893 5894 5895 5895 5896 5897 5898 5900 5901 5902 5902 5903 5904 5904 5905 5906 5907 5908 5908 5909 5910 5910 5911 5911 5911 5912 5912 5912 5912 5912 5912 5913 5912 5913 5913 5913 5912 5912 5912 5912 5912 5912 5912 5912 5912 5911 5911 5911 5911 5910 5909 5910 5910 5910 5909 5909 5909 5909 5910 5910 5910 5910
5878 5879 5881 5881 5881 5882 5883 5884 5884 5884 5885 5886 5887 5888 5888 5888 5889 5889 5889 5890 5890 5891 5891 5892 5893 5894 5894 5895 5896 5897 5898 5899 5900 5901 5902 5903 5903 5904 5905 5906 5906 5907 5908 5908 5909 5909 5909 5910 5910 5910 5910 5911 5911 5911 5911 5911 5911 5912 5911 5911 5911 5911 5910 5910 5910 5910 5910 5910 5910 5910 5910 5909 5909 5908 5908 5909 5909 5909 5908 5908 5908 5908 5909 5909 5908
5878 5879 5881 5881 5881 5881 5882 5883 5883 5884 5885 5886 5886 5887 5886 5887 5888 5888 5888 5889 5890 5890 5890 5891 5892 5893 5893 5894 5894 5896 5897 5898 5899 5900 5901 5901 5902 5902 5903 5904 5905 5905 5906 5906 5907 5907 5908 5908 5908 5909 5909 5909 5909 5910 5910 5910 5910 5910 5910 5909 5910 5910 5909 5908 5908 5909 5909 5909 5908 5908 5909 5908 5908 5908 5907 5908 5908 5908 5907 5907 5907 5907 5907 5907 5907
5877 5878 5879 5880 5880 5880 5881 5881 5882 5882 5883 5884 5885 5885 5885 5886 5887 5887 5887 5888 5889 5889 5890 5890 5891 5892 5892 5893 5894 5894 5895 5896 5897 5898 5899 5899 5900 5901 5902 5902 5903 5903 5904 5904 5905 5906 5906 5906 5907 5907 5907 5907 5908 5908 5908 5909 5908 5908 5908 5908 5908 5908 5909 5908 5907 5907 5907 5907 5907 5907 5907 5907 5907 5907 5906 5906 5906 5906 5906 5906 5906 5906 5906 5906 5906
5877 5877 5878 5878 5879 5879 5879 5880 5880 5881 5882 5883 5884 5884 5884 5885 5885 5886 5886 5887 5888 5889 5889 5889 5890 5891 5891 5892 5893 5893 5894 5894 5895 5896 5896 5897 5897 5899 5900 5900 5901 5902 5902 5903 5903 5904 5904 5905 5905 5905 5906 5906 5906 5907 5907 5907 5907 5906 5906 5906 5906 5906 5907 5906 5906 5906 5905 5905 5905 5905 5905 5905 5905 5905 5906 5905 5905 5905 5905 5905 5905 5905 5905 5905 5904
5876 5877 5877 5877 5878 5878 5878 5879 5879 5880 5881 5881 5882 5882 5883 5883 5884 5884 5885 5886 5887 5887 5887 5887 5888 5889 5889 5890 5891 5892 5892 5893 5893 5893 5894 5894 5895 5896 5897 5898 5899 5900 5900 5901 5901 5902 5902 5903 5903 5903 5904 5904 5904 5905 5905 5905 5905 5905 5905 5905 5904 5905 5905 5904 5904 5904 5904 5903 5903 5903 5903 5903 5903 5903 5904 5904 5903 5903 5903 5903 5903 5904 5903 5903 5903
5876 5876 5876 5876 5877 5878 5878 5878 5878 5879 5879 5880 5880 5880 5881 5881 5882 5882 5883 5884 5884 5885 5885 5885 5886 5886 5887 5887 5888 5889 5889 5890 5892 5892 5892 5892 5893 5894 5895 5896 5897 5898 5898 5899 5900 5900 5901 5901 5901 5901 5902 5902 5902 5903 5903 5903 5903 5903 5903 5902 5902 5902 5902 5903 5903 5902 5903 5902 5902 5902 5901 5901 5901 5901 5902 5902 5902 5902 5901 5900 5900 5901 5901 5901 5901
5875 5875 5876 5876 5877 5877 5877 5878 5878 5878 5878 5878 5878 5879 5879 5880 5880 5880 5881 5881 5882 5882 5883 5883 5883 5884 5884 5884 5884 5885 5887 5889 5891 5892 5892 5891 5892 5892 5893 5893 5894 5895 5896 5897 5897 5898 5898 5899 5899 5899 5899 5899 5900 5900 5901 5901 5901 5901 5900 5900 5899 5899 5900 5901 5901 5901 5901 5900 5900 5900 5900 5899 5899 5899 5899 5899 5899 5899 5898 5898 5897 5898 5898 5898 5898
5875 5875 5875 5876 5876 5877 5877 5877 5877 5877 5877 5877 5878 5878 5878 5878 5878 5879 5879 5879 5879 5879 5880 5881 5881 5882 5882 5882 5882 5883 5886 5888 5889 5890 5890 5890 5890 5890 5890 5891 5891 5892 5893 5894 5895 5895 5896 5896 5897 5897 5897 5897 5897 5898 5898 5898 5898 5898 5898 5897 5897 5897 5897 5897 5898 5898 5898 5898 5898 5899 5898 5898 5898 5898 5897 5897 5896 5895 5895 5895 5895 5895 5895 5895 5895
5874 5874 5874 5875 5875 5876 5876 5876 5876 5876 5876 5877 5877 5877 5877 5877 5877 5877 5878 5878 5877 5877 5877 5878 5878 5879 5879 5880 5881 5882 5884 5885 5885 5885 5887 5887 5887 5888 5888 5888 5889 5889 5890 5891 5892 5892 5893 5894 5894 5894 5895 5895 5895 5895 5895 5895 5895 5895 5895 5895 5895 5894 5894 5894 5895 5895 5895 5895 5896 5896 5896 5895 5896 5896 5895 5894 5893 5892 5892 5892 5892 5892 5892 5891 5892
5873 5873 5873 5874 5874 5875 5875 5875 5875 5875 5875 5876 5876 5876 5876 5876 5876 5876 5876 5876 5876 5875 5875 5875 5875 5876 5877 5878 5879 5880 5881 5881 5881 5882 5883 5884 5885 5885 5886 5886 5886 5887 5887 5888 5888 5889 5890 5891 5892 5892 5892 5892 5892 5892 5892 5892 5892 5892 5891 5891 5891 5891 5891 5891 5892 5893 5894 5893 5894 5894 5894 5893 5894 5893 5892 5891 5890 5890 5889 5889 5889 5889 5888 5888 5889
5873 5873 5873 5873 5873 5873 5874 5874 5874 5874 5874 5874 5875 5875 5875 5875 5875 5875 5875 5875 5875 5874 5873 5873 5873 5874 5874 5875 5877 5878 5877 5877 5878 5879 5880 5881 5882 5883 5883 5883 5883 5884 5884 5884 5885 5886 5888 5888 5888 5888 5888 5888 5889 5889 5889 5889 5889 5889 5889 5889 5888 5889 5889 5890 5891 5891 5892 5892 5892 5892 5892 5891 5891 5891 5890 5889 5888 5888 5887 5887 5886 5886 5885 5885 5885
5871 5871 5871 5872 5872 5872 5872 5872 5872 5872 5872 5873 5873 5873 5873 5874 5874 5874 5874 5874 5873 5873 5872 5872 5872 5872 5872 5873 5874 5875 5874 5874 5875 5876 5877 5878 5879 5880 5880 5880 5880 5881 5881 5882 5883 5884 5885 5885 5885 5885 5885 5886 5886 5886 5886 5886 5886 5885 5886 5886 5885 5886 5887 5889 5889 5888 5888 5889 5889 5889 5888 5888 5888 5888 5887 5887 5885 5883 5883 5884 5883 5883 5881 5881 5881
5869 5869 5869 5870 5870 5870 5870 5870 5870 5870 5870 5870 5871 5871 5871 5871 5871 5872 5872 5872 5872 5871 5871 5870 5870 5870 5870 5870 5870 5871 5871 5872 5873 5874 5875 5875 5876 5876 5876 5877 5878 5878 5879 5880 5881 5881 5881 5881 5881 5882 5882 5882 5882 5883 5883 5882 5882 5882 5882 5882 5883 5884 5885 5885 5884 5883 5883 5884 5885 5884 5884 5884 5884 5884 5884 5884 5881 5879 5879 5880 5880 5879 5878 5877 5877
5866 5867 5867 5867 5867 5868 5868 5868 5868 5868 5868 5868 5868 5868 5868 5869 5869 5869 5869 5869 5869 5869 5869 5869 5868 5868 5868 5868 5868 5868 5868 5869 5870 5870 5871 5871 5872 5872 5872 5873 5874 5875 5875 5876 5876 5876 5877 5877 5877 5877 5877 5877 5878 5879 5879 5879 5879 5879 5879 5879 5880 5882 5882 5881 5879 5878 5879 5879 5880 5881 5880 5879 5879 5880 5880 5880 5878 5876 5876 5876 5876 5875 5874 5873 5872
5863 5864 5864 5864 5864 5865 5865 5865 5865 5865 5865 5865 5865 5865 5865 5866 5866 5866 5866 5866 5866 5866 5866 5866 5866 5866 5866 5866 5866 5865 5865 5865 5865 5865 5866 5866 5867 5867 5868 5869 5870 5870 5871 5872 5872 5872 5872 5873 5872 5872 5873 5873 5874 5874 5874 5875 5876 5876 5876 5877 5877 5877 5878 5877 5875 5874 5874 5874 5874 5876 5876 5876 5875 5876 5876 5876 5875 5873 5871 5871 5871 5871 5870 5868 5868
5860 5860 5861 5861 5861 5861 5861 5862 5862 5862 5862 5862 5862 5862 5862 5862 5863 5863 5862 5862 5862 5862 5862 5862 5862 5863 5863 5863 5863 5862 5862 5862 5861 5862 5862 5862 5862 5863 5863 5864 5865 5866 5867 5867 5868 5867 5867 5868 5868 5868 5869 5869 5870 5870 5870 5870 5872 5872 5872 5873 5873 5873 5873 5872 5871 5870 5870 5869 5870 5871 5871 5871 5871 5871 5872 5872 5871 5869 5867 5866 5866 5866 5865 5864 5863
5857 5857 5858 5858 5858 5858 5858 5858 5858 5858 5858 5858 5858 5858 5858 5858 5859 5859 5858 5858 5858 5858 5858 5858 5858 5859 5859 5859 5859 5859 5859 5859 5859 5859 5859 5859 5859 5859 5859 5860 5861 5862 5862 5863 5863 5863 5863 5863 5863 5865 5865 5865 5865 5865 5865 5865 5866 5867 5868 5868 5868 5867 5867 5867 5867 5866 5865 5865 5866 5867 5866 5866 5866 5867 5867 5866 5866 5864 5863 5862 5862 5860 5859 5859 5858
5855 5855 5855 5855 5855 5855 5855 5855 5855 5854 5854 5854 5854 5854 5854 5854 5854 5854 5854 5854 5854 5854 5854 5854 5854 5854 5855 5855 5855 5855 5856 5856 5855 5855 5856 5856 5856 5856 5855 5856 5857 5858 5858 5858 5858 5859 5859 5858 5859 5861 5861 5860 5860 5860 5861 5861 5862 5862 5863 5862 5862 5862 5861 5862 5863 5863 5862 5862 5861 5861 5861 5860 5860 5861 5861 5861 5860 5859 5858 5858 5857 5856 5854 5853 5853
5852 5852 5852 5852 5852 5852 5852 5851 5851 5851 5851 5850 5850 5850 5850 5850 5850 5850 5849 5849 5849 5849 5849 5849 5849 5849 5850 5850 5850 5851 5851 5851 5851 5851 5851 5851 5852 5852 5852 5852 5853 5854 5854 5854 5855 5855 5855 5855 5856 5857 5856 5856 5857 5857 5857 5857 5858 5857 5857 5857 5857 5857 5856 5857 5858 5858 5857 5856 5856 5856 5856 5856 5856 5856 5856 5856 5855 5854 5853 5852 5851 5851 5850 5849 5848
5849 5850 5850 5850 5849 5849 5849 5848 5848 5848 5847 5847 5847 5846 5846 5846 5845 5845 5845 5845 5845 5844 5844 5844 5845 5845 5845 5845 5846 5846 5847 5847 5847 5847 5847 5847 5847 5848 5848 5848 5849 5850 5851 5851 5851 5852 5852 5852 5853 5853 5853 5853 5854 5853 5853 5854 5854 5853 5851 5851 5852 5853 5852 5853 5853 5853 5852 5852 5851 5852 5851 5851 5851 5852 5851 5851 5850 5849 5848 5846 5845 5846 5846 5844 5843
5847 5847 5847 5847 5846 5846 5846 5845 5845 5845 5844 5843 5843 5843 5842 5842 5841 5841 5841 5840 5840 5840 5840 5840 5840 5840 5839 5840 5841 5842 5842 5843 5843 5843 5843 5843 5843 5843 5844 5844 5845 5846 5846 5847 5848 5848 5849 5849 5849 5849 5849 5849 5850 5849 5849 5850 5850 5849 5847 5847 5848 5849 5849 5848 5848 5848 5847 5848 5848 5847 5846 5846 5847 5847 5846 5845 5844 5844 5843 5841 5840 5840 5840 5839 5837
5844 5844 5844 5844 5844 5843 5843 5842 5842 5841 5841 5840 5840 5839 5839 5838 5838 5837 5837 5836 5836 5835 5835 5835 5835 5835 5835 5835 5836 5837 5837 5838 5839 5838 5839 5839 5839 5839 5839 5840 5840 5841 5842 5842 5843 5844 5844 5845 5845 5845 5845 5845 5845 5845 5845 5845 5845 5845 5844 5843 5843 5843 5844 5844 5844 5844 5843 5843 5843 5842 5842 5842 5841 5841 5840 5839 5839 5839 5838 5836 5835 5835 5834 5833 5832
5842 5842 5842 5841 5841 5840 5840 5839 5839 5838 5838 5837 5836 5836 5835 5835 5834 5834 5833 5832 5832 5831 5831 5831 5831 5831 5830 5830 5831 5831 5832 5833 5834 5834 5834 5834 5835 5835 5835 5836 5836 5837 5837 5838 5838 5839 5840 5840 5840 5841 5841 5841 5841 5840 5840 5840 5840 5840 5840 5839 5839 5839 5839 5839 5839 5839 5839 5838 5838 5837 5837 5836 5836 5835 5835 5834 5834 5833 5832 5831 5831 5831 5829 5829 5828
5840 5839 5839 5839 5838 5838 5837 5837 5836 5836 5835 5834 5833 5833 5832 5831 5830 5830 5829 5828 5828 5827 5827 5826 5826 5826 5826 5826 5826 5826 5827 5828 5829 5829 5830 5830 5830 5831 5831 5832 5832 5832 5833 5833 5834 5834 5835 5836 5836 5836 5836 5836 5836 5836 5836 5836 5836 5836 5835 5835 5835 5834 5834 5834 5834 5834 5834 5833 5833 5832 5831 5831 5830 5830 5830 5829 5829 5828 5827 5826 5826 5825 5825 5824 5823
5837 5837 5836 5836 5836 5835 5835 5834 5834 5833 5833 5832 5831 5830 5829 5828 5827 5826 5825 5824 5824 5823 5823 5822 5822 5821 5821 5821 5821 5822 5822 5823 5824 5825 5825 5826 5826 5826 5827 5827 5828 5828 5829 5829 5830 5830 5831 5831 5832 5832 5832 5832 5832 5832 5832 5832 5831 5831 5831 5830 5830 5829 5829 5828 5828 5828 5828 5827 5827 5826 5826 5826 5825 5825 5825 5825 5824 5823 5822 5822 5821 5820 5820 5819 5818
5835 5834 5834 5834 5833 5833 5832 5832 5831 5830 5830 5829 5828 5828 5827 5825 5824 5823 5822 5821 5820 5819 5819 5818 5817 5817 5817 5817 5817 5817 5818 5818 5819 5820 5821 5821 5822 5823 5823 5824 5824 5824 5825 5825 5826 5826 5827 5827 5827 5827 5827 5827 5827 5827 5827 5827 5826 5826 5826 5825 5824 5824 5823 5823 5823 5822 5822 5821 5821 5821 5821 5820 5820 5820 5820 5819 5819 5818 5817 5816 5816 5816 5816 5815 5815
5833 5832 5832 5831 5831 5830 5830 5829 5828 5828 5827 5826 5826 5825 5824 5823 5822 5820 5819 5818 5817 5816 5815 5814 5814 5813 5813 5813 5813 5813 5814 5814 5815 5816 5816 5817 5818 5819 5819 5820 5820 5820 5821 5822 5822 5822 5822 5823 5823 5823 5823 5823 5823 5823 5823 5822 5822 5821 5821 5820 5819 5819 5818 5818 5817 5817 5817 5816 5816 5816 5816 5815 5815 5815 5815 5815 5815 5814 5813 5813 5812 5813 5812 5812 5812
5830 5830 5829 5829 5829 5828 5827 5826 5826 5825 5824 5823 5823 5822 5821 5820 5819 5817 5816 5815 5813 5812 5811 5811 5810 5810 5810 5810 5810 5810 5810 5810 5811 5812 5812 5813 5814 5815 5815 5816 5816 5817 5817 5818 5818 5818 5819 5819 5819 5819 5819 5819 5819 5819 5819 5819 5818 5817 5817 5816 5815 5814 5814 5813 5813 5813 5812 5812 5812 5812 5812 5812 5811 5811 5811 5811 5811 5810 5810 5810 5810 5810 5810 5809 5808
5828 5827 5827 5826 5826 5825 5824 5824 5823 5822 5821 5820 5819 5819 5818 5817 5816 5815 5813 5812 5810 5809 5808 5808 5807 5807 5807 5806 5806 5806 5806 5807 5807 5808 5808 5809 5810 5811 5811 5812 5813 5814 5814 5814 5814 5815 5815 5815 5815 5816 5816 5816 5816 5816 5815 5815 5814 5814 5813 5812 5811 5810 5810 5810 5809 5809 5809 5809 5808 5808 5808 5808 5808 5808 5807 5807 5807 5807 5808 5808 5808 5808 5807 5806 5805
5825 5825 5824 5823 5823 5822 5821 5821 5820 5819 5818 5817 5816 5816 5815 5814 5813 5812 5811 5809 5808 5807 5806 5805 5805 5804 5804 5804 5803 5803 5803 5803 5804 5804 5805 5806 5806 5807 5808 5809 5810 5810 5811 5811 5811 5812 5812 5812 5812 5813 5813 5812 5812 5812 5812 5811 5811 5810 5810 5809 5808 5808 5807 5807 5806 5806 5806 5806 5806 5805 5805 5805 5805 5805 5805 5805 5805 5805 5805 5805 5805 5804 5803 5802 5801
5822 5822 5821 5820 5820 5819 5819 5818 5817 5816 5816 5815 5814 5813 5812 5811 5810 5809 5808 5807 5806 5805 5804 5803 5803 5802 5802 5801 5801 5801 5801 5801 5801 5802 5802 5803 5803 5804 5805 5805 5806 5807 5808 5808 5809 5809 5809 5809 5810 5810 5809 5809 5809 5809 5808 5808 5808 5807 5807 5806 5806 5805 5805 5805 5804 5804 5804 5803 5803 5803 5803 5803 5803 5803 5803 5803 5803 5802 5802 5802 5801 5801 5800 5800 5799
5819 5819 5818 5818 5817 5817 5816 5815 5814 5814 5813 5812 5812 5811 5810 5808 5807 5806 5805 5805 5804 5803 5802 5802 5801 5801 5800 5800 5799 5799 5799 5799 5799 5799 5800 5801 5801 5802 5802 5803 5804 5805 5805 5806 5806 5807 5807 5807 5807 5807 5807 5806 5806 5806 5806 5806 5805 5805 5805 5804 5804 5804 5803 5803 5803 5802 5802 5802 5802 5802 5802 5802 5801 5801 5801 5801 5800 5800 5799 5799 5799 5799 5798 5798 5797
5816 5816 5815 5815 5814 5814 5813 5813 5812 5811 5810 5810 5809 5809 5808 5807 5805 5805 5804 5803 5802 5802 5801 5800 5800 5799 5799 5799 5798 5798 5798 5798 5798 5798 5799 5799 5799 5800 5800 5801 5801 5802 5803 5804 5804 5805 5805 5805 5805 5805 5804 5804 5804 5804 5804 5804 5804 5804 5803 5803 5803 5802 5802 5802 5802 5801 5801 5801 5801 5801 5800 5800 5800 5799 5799 5799 5798 5798 5798 5798 5797 5797 5796 5796 5795
5813 5813 5813 5812 5812 5812 5811 5810 5809 5809 5808 5807 5807 5806 5806 5805 5804 5803 5802 5801 5801 5800 5800 5799 5799 5798 5798 5798 5797 5797 5797 5797 5797 5797 5798 5798 5798 5798 5798 5799 5800 5801 5801 5802 5802 5803 5803 5803 5803 5803 5803 5803 5803 5803 5803 5803 5803 5803 5802 5802 5802 5802 5801 5801 5801 5800 5800 5799 5799 5799 5798 5798 5798 5797 5797 5797 5797 5797 5796 5796 5795 5795 5794 5793 5793
5810 5810 5810 5810 5809 5809 5809 5808 5807 5806 5805 5805 5804 5804 5804 5803 5802 5802 5801 5800 5800 5799 5798 5798 5798 5797 5797 5797 5797 5797 5797 5797 5797 5797 5797 5797 5797 5797 5798 5798 5799 5799 5800 5801 5801 5801 5801 5802 5802 5802 5802 5802 5802 5802 5802 5802 5802 5801 5801 5801 5801 5800 5800 5799 5799 5798 5798 5798 5797 5797 5797 5797 5796 5796 5796 5795 5795 5795 5794 5793 5793 5792 5792 5791 5790
5808 5808 5808 5807 5807 5806 5806 5805 5804 5803 5802 5802 5802 5801 5801 5801 5801 5800 5800 5799 5799 5798 5798 5797 5797 5797 5797 5796 5796 5796 5796 5797 5797 5797 5797 5797 5797 5797 5797 5798 5798 5799 5799 5800 5800 5800 5800 5801 5801 5801 5801 5801 5801 5800 5800 5800 5800 5800 5800 5799 5799 5799 5798 5798 5797 5797 5796 5796 5796 5796 5795 5795 5795 5794 5794 5793 5793 5792 5792 5791 5790 5790 5789 5788 5788
5805 5805 5805 5804 5804 5804 5803 5803 5802 5801 5800 5799 5799 5799 5799 5799 5799 5799 5798 5798 5798 5797 5797 5796 5796 5796 5796 5796 5796 5796 5796 5796 5796 5796 5796 5797 5796 5796 5797 5797 5797 5798 5798 5799 5799 5799 5799 5799 5799 5799 5799 5799 5799 5799 5799 5799 5799 5798 5798 5797 5797 5797 5796 5796 5796 5795 5795 5795 5794 5794 5793 5793 5792 5792 5791 5791 5790 5790 5789 5789 5788 5787 5787 5786 5785
5801 5802 5802 5802 5802 5801 5801 5800 5799 5799 5798 5797 5797 5796 5796 5797 5797 5797 5797 5797 5796 5796 5796 5796 5795 5795 5795 5795 5795 5795 5795 5795 5795 5796 5796 5796 5796 5796 5796 5796 5797 5797 5797 5798 5798 5798 5798 5798 5798 5798 5798 5798 5798 5798 5798 5797 5797 5796 5796 5795 5795 5795 5794 5794 5794 5793 5793 5793 5792 5792 5791 5791 5791 5790 5789 5789 5788 5787 5787 5786 5785 5784 5783 5782 5781
5798 5799 5799 5799 5799 5799 5798 5797 5797 5796 5796 5795 5794 5794 5794 5794 5794 5795 5795 5795 5795 5795 5795 5795 5794 5794 5794 5794 5794 5795 5795 5795 5795 5795 5795 5795 5795 5795 5796 5796 5796 5796 5796 5796 5796 5796 5796 5796 5796 5796 5796 5796 5796 5796 5796 5795 5795 5794 5794 5793 5793 5792 5792 5792 5791 5791 5791 5791 5790 5790 5789 5789 5788 5788 5787 5786 5785 5784 5784 5783 5782 5781 5780 5779 5777
5795 5796 5796 5796 5796 5796 5795 5794 5794 5793 5793 5793 5792 5792 5791 5791 5792 5793 5793 5793 5794 5794 5793 5793 5793 5793 5793 5794 5794 5794 5794 5794 5794 5794 5794 5794 5794 5794 5795 5795 5795 5795 5794 5794 5794 5794 5794 5794 5794 5794 5794 5794 5793 5793 5793 5792 5792 5792 5791 5790 5790 5790 5789 5789 5789 5788 5788 5788 5787 5787 5787 5786 5786 5785 5784 5783 5782 5781 5780 5779 5778 5777 5776 5775 5774
5791 5792 5793 5793 5793 5792 5792 5791 5790 5790 5790 5790 5790 5789 5789 5789 5790 5790 5791 5791 5791 5792 5792 5792 5792 5792 5792 5792 5792 5793 5793 5793 5793 5793 5793 5793 5793 5793 5793 5793 5793 5793 5792 5792 5792 5792 5792 5792 5791 5791 5791 5791 5790 5790 5790 5789 5789 5788 5788 5788 5787 5787 5786 5786 5786 5785 5785 5785 5784 5784 5783 5783 5782 5782 5781 5780 5779 5778 5777 5776 5775 5774 5773 5772 5770
5788 5788 5789 5789 5789 5789 5788 5788 5787 5787 5787 5787 5787 5786 5786 5787 5787 5788 5788 5789 5789 5790 5790 5790 5790 5791 5791 5791 5791 5791 5791 5791 5791 5791 5791 5791 5791 5791 5791 5791 5791 5790 5790 5790 5790 5789 5789 5789 5789 5788 5788 5788 5788 5787 5787 5786 5786 5786 5785 5785 5784 5784 5783 5783 5782 5782 5782 5782 5781 5781 5780 5780 5779 5779 5778 5777 5776 5775 5774 5773 5772 5771 5769 5768 5767
5784 5785 5785 5785 5785 5785 5785 5784 5784 5784 5784 5784 5784 5784 5784 5784 5785 5785 5786 5786 5787 5787 5788 5788 5788 5788 5789 5789 5789 5789 5789 5789 5789 5789 5789 5789 5789 5788 5788 5788 5788 5788 5787 5787 5787 5787 5786 5786 5786 5786 5785 5785 5785 5784 5784 5784 5783 5783 5782 5782 5781 5781 5780 5780 5779 5779 5779 5778 5778 5778 5777 5777 5776 5775 5774 5774 5773 5772 5771 5769 5768 5767 5766 5765 5763
5780 5781 5781 5781 5781 5781 5781 5781 5781 5780 5780 5780 5781 5781 5781 5781 5782 5782 5783 5783 5784 5785 5785 5785 5785 5786 5786 5786 5786 5786 5787 5787 5787 5786 5786 5786 5786 5786 5785 5785 5785 5785 5784 5784 5784 5784 5783 5783 5783 5782 5782 5782 5782 5781 5781 5781 5780 5780 5779 5779 5778 5778 5777 5777 5777 5776 5776 5775 5775 5774 5774 5773 5772 5772 5771 5770 5769 5768 5767 5766 5764 5763 5762 5760 5759
5776 5777 5777 5777 5777 5778 5778 5777 5777 5777 5777 5777 5777 5778 5778 5779 5779 5779 5780 5780 5781 5782 5782 5782 5782 5783 5783 5783 5783 5784 5784 5783 5783 5783 5783 5783 5783 5783 5782 5782 5782 5781 5781 5781 5781 5780 5780 5780 5780 5779 5779 5779 5778 5778 5778 5777 5777 5776 5776 5775 5775 5775 5774 5774 5773 5773 5773 5772 5772 5771 5771 5770 5769 5768 5767 5766 5765 5764 5763 5761 5760 5759 5757 5756 5754
5773 5774 5774 5774 5774 5774 5774 5774 5774 5774 5774 5774 5774 5775 5775 5776 5776 5777 5777 5777 5778 5779 5779 5780 5780 5780 5780 5780 5780 5780 5780 5780 5780 5780 5779 5779 5779 5779 5779 5779 5779 5778 5778 5778 5777 5777 5777 5776 5776 5776 5776 5775 5775 5775 5774 5774 5774 5773 5773 5772 5772 5771 5771 5770 5770 5770 5769 5769 5768 5767 5767 5766 5765 5764 5763 5762 5761 5759 5758 5757 5755 5754 5752 5751 5750
5769 5770 5771 5771 5771 5771 5770 5770 5771 5771 5771 5771 5771 5772 5772 5773 5773 5774 5774 5774 5775 5775 5776 5777 5777 5777 5777 5777 5777 5777 5777 5777 5777 5776 5776 5776 5776 5775 5775 5775 5775 5775 5775 5774 5774 5773 5773 5773 5772 5772 5772 5772 5771 5771 5771 5770 5770 5770 5769 5769 5768 5768 5767 5767 5766 5766 5765 5765 5764 5764 5763 5762 5761 5759 5759 5758 5756 5755 5754 5752 5750 5749 5748 5746 5745
5765 5766 5767 5767 5768 5767 5767 5767 5767 5767 5768 5768 5768 5768 5769 5770 5770 5771 5771 5771 5771 5772 5773 5774 5774 5774 5774 5773 5773 5773 5773 5773 5773 5773 5773 5772 5772 5771 5772 5772 5772 5771 5771 5771 5770 5770 5769 5769 5769 5768 5768 5768 5768 5768 5767 5767 5766 5766 5765 5765 5764 5764 5763 5763 5762 5762 5761 5761 5760 5760 5759 5758 5757 5755 5754 5753 5752 5750 5749 5747 5746 5745 5743 5742 5740
5761 5762 5763 5763 5764 5764 5764 5764 5763 5764 5764 5764 5765 5765 5766 5767 5767 5768 5768 5768 5769 5769 5769 5770 5771 5771 5771 5770 5770 5770 5770 5770 5770 5770 5770 5769 5769 5768 5768 5768 5769 5768 5768 5767 5766 5766 5766 5765 5765 5765 5765 5765 5764 5764 5763 5763 5763 5762 5762 5761 5761 5760 5760 5759 5759 5758 5758 5757 5757 5756 5755 5754 5753 5751 5750 5749 5747 5746 5744 5743 5741 5740 5739 5737 5735